Regional Weather Roundup
Issued by NWS

Home | Current Version | Previous Version | Graphics & Text | Print | Product List | Glossary On
Versions: 1 2 3 4 5 6 7 8 9 10 11 12 13 14 15 16 17 18 19 20 21 22 23 24 25 26 27 28 29 30 31 32 33 34 35 36 37 38 39 40 41 42 43 44 45 46 47 48 49 50
000
ASUS43 KMKX 260821
RWRWI

WISCONSIN REGIONAL WEATHER ROUNDUP
NATIONAL WEATHER SERVICE MILWAUKEE/SULLIVAN WI
300 AM CDT SUN MAR 26 2017

NOTE: "FAIR" INDICATES FEW OR NO CLOUDS BELOW 12,000 FEET WITH NO
SIGNIFICANT WEATHER AND/OR OBSTRUCTIONS TO VISIBILITY.

WIZ001-002-006>008-014>016-023>028-260900-
NORTHWEST WISCONSIN

CITY           SKY/WX    TMP DP  RH WIND       PRES   REMARKS
SUPERIOR ARPT  CLOUDY    33  32  96 E7        30.06F WCI  27
ASHLAND        MIX PCPN  32  31  96 N3        30.06F FOG
HAYWARD        LGT RAIN  34  32  92 NE6       30.01F FOG     WCI  29
SIREN          CLOUDY    34  31  89 NE5       30.01F WCI  30
CUMBERLAND     CLOUDY    34  32  93 CALM      29.99F FOG
RICE LAKE      CLOUDY    35  34  96 CALM      30.01F FOG
CHETEK         DRIZZLE   34  34 100 CALM      30.00F
LADYSMITH      CLOUDY    35  33  94 NE3       30.02S
EAU CLAIRE     CLOUDY    35  34  96 E6        29.98F WCI  30
MENOMONIE      CLOUDY    35  35  98 NE6       29.99F FOG     WCI  30
NEW RICHMOND   RAIN      35  34  98 E7        29.99F WCI  29
OSCEOLA        RAIN      37  37 100 E7        30.02F WCI  31
$$

WIZ003>005-009-010-017-018-260900-
NORTH CENTRAL WISCONSIN

CITY           SKY/WX    TMP DP  RH WIND       PRES   REMARKS
MANITOWISH WTR CLOUDY    32  32 100 E3        30.00F
ARBOR VITAE    CLOUDY    34  33  94 SE7       29.99F WCI  28
WOODRUFF       CLOUDY    34  33  94 SE7       29.99F WCI  28
RHINELANDER    CLOUDY    33  32  96 E10       30.00F WCI  25
EAGLE RIVER    MIX PCPN  32  32  99 SE8       30.01S WCI  25
LAND O LAKES   CLOUDY    32  32 100 SE6       30.02F WCI  26
PHILLIPS       CLOUDY    32  32 100 E3        29.99F
TOMAHAWK       CLOUDY    32  31  96 CALM      30.01S
MEDFORD        CLOUDY    32  31  98 E10       29.97F FOG     WCI  24
MERRILL        CLOUDY    33  32  99 E7        30.00F WCI  26
$$

WIZ029-030-035-036-043>047-260900-
CENTRAL WISCONSIN

CITY           SKY/WX    TMP DP  RH WIND       PRES   REMARKS
WAUSAU         CLOUDY    32  32 100 E9        29.98F FOG     WCI  24
MOSINEE        MIX PCPN  32  32 100 E10       29.99F WCI  24
MARSHFIELD     LGT RAIN  33  31  92 E9        29.96F FOG     WCI  25
STEVENS POINT  CLOUDY    32  32 100 E8        29.99F FOG     WCI  24
WAUPACA        CLOUDY    36  35  94 NE7       30.01S FOG     WCI  31
WAUTOMA        MIX PCPN  35  34  96 E9        29.98F FOG     WCI  28
WISC RAPIDS    LGT RAIN  34  34 100 E9        29.98F FOG     WCI  27
CAMP DOUGLAS   DRIZZLE   36  36 100 E6        29.95F FOG     WCI  31
$$

WIZ011>013-019>022-031-037>040-048>050-260900-
NORTHEAST WISCONSIN

CITY           SKY/WX    TMP DP  RH WIND       PRES   REMARKS
ANTIGO         CLOUDY    31  31 100 E9        30.00F FOG     WCI  22
SHAWANO        CLOUDY    34  33  93 NE12      30.04F FOG     WCI  26
OCONTO         CLOUDY    33  32  97 NE8       30.05F WCI  26
STURGEON BAY   MIX PCPN  34  34 100 E7        30.05F FOG     WCI  28
GREEN BAY      CLOUDY    35  35 100 NE13      30.02F FOG     WCI  26
MANITOWOC      CLOUDY    37  36  96 NE8       30.02F WCI  31
APPLETON       CLOUDY    34  34 100 NE12      29.98F FOG     WCI  25
CLINTONVILLE   CLOUDY    34  32  93 E8        30.03S FOG     WCI  27
OSHKOSH        CLOUDY    36  35  96 NE10      29.98F FOG     WCI  28
$$

WIZ032>034-041-042-053>061-260900-
SOUTHWEST WISCONSIN

CITY           SKY/WX    TMP DP  RH WIND       PRES   REMARKS
LA CROSSE      CLOUDY    38  36  92 NE7       29.95F WCI  33
SPARTA         RAIN      35  35 100 E6        29.96F WCI  30
VIROQUA        CLOUDY    36  36 100 E12       29.91F WCI  27
BOSCOBEL       LGT RAIN  40  38  93 VRB5      29.92F FOG
PRAIRIE DU CHI CLOUDY    39  38  97 NE6       29.90F WCI  34
PLATTEVILLE    CLOUDY    40  40 100 NE12      29.88S WCI  33
$$

WIZ056-057-062-063-064-067-068-260900-
SOUTH CENTRAL WISCONSIN

CITY           SKY/WX    TMP DP  RH WIND       PRES   REMARKS
REEDSBURG      CLOUDY    37  37 100 E7        29.94F WCI  31
BARABOO/DELLS  CLOUDY    37  36  98 NE9       29.94F FOG     WCI  30
LONE ROCK      CLOUDY    40  38  93 E9        29.92F FOG     WCI  34
MINERAL POINT  LGT RAIN  41  41 100 NE10      29.88F
MADISON        LGT RAIN  39  39 100 NE8       29.92F FOG     WCI  33
MIDDLETON      CLOUDY    40  40 100 E7        29.92F
WATERTOWN      CLOUDY    39  39 100 E12G17    29.92F FOG     WCI  32
MONROE         SNOW      41  41 100 NE12      29.88F VSB 1/4
JANESVILLE     CLOUDY    43  43 100 E9        29.89F FOG
$$

WIZ051-052-058>065-066-070>072-260900-
SOUTHEAST WISCONSIN

CITY           SKY/WX    TMP DP  RH WIND       PRES   REMARKS
MILWAUKEE      LGT RAIN  39  37  92 NE15      29.95F FOG     WCI  31
WAUKESHA       FOG       36  36 100 E8        29.95F VSB 1/2 WCI  29
MILWAUKEE/TIMM DRIZZLE   37  36  93 NE9       29.97F WCI  31
RACINE         LGT RAIN  39  38  96 NE8       29.96F FOG     WCI  33
KENOSHA        LGT RAIN  42  41  96 NE12      29.93F VSB 1/2
FOND DU LAC    CLOUDY    38  35  89 NE8       29.97F WCI  32
SHEBOYGAN      CLOUDY    37  35  92 NE12      29.99F FOG     WCI  29
WEST BEND      FOG       37  37 100 E10G23    29.97F VSB 1   WCI  30
JUNEAU         FOG       38  38  99 E8        29.95F VSB 3/4 WCI  33
$$

LSZ147-162-260900-
LAKE SUPERIOR

STATION/POSITION TIME  TEMP    WIND        PRES    WAVE
                       AIR SEA DIR/SP/G            HT/PER
                 (UTC) (F)     (DEG/KT/KT) (MB)    (FT/S)
DEVILS ISLAND    0800   34     100/ 14/ 16 1018.8F
PORT WING        0740   34      40/  5/  6 1018.3F
SAXON HARBOR     0730   32      70/  3/  7 1017.9F
$$

LMZ867-665-643>646-260900-
LAKE MICHIGAN

STATION/POSITION TIME  TEMP    WIND        PRES    WAVE
                       AIR SEA DIR/SP/G            HT/PER
                 (UTC) (F)     (DEG/KT/KT) (MB)    (FT/S)
CHAMBERS ISLAND  0740   33      40/  9/ 14 1017.9F
NORTHPORT PIER   0740   33      80/ 15/ 19 1018.6F
SISTER BAY       0706   33     110/  8/ 13   N/A
KEWAUNEE LAKESHO 0754   36      50/  9/ 12 1016.5F
SHEBOYGAN LAKESH 0800   37      40/ 12/ 13 1016.0F
PORT WASHINGTON  0740   38      40/ 14/ 17 1016.3F
MILWAUKEE LAKESH 0800   38      30/ 15/ 18   N/A
KENOSHA   LAKESH 0800   39      30/ 11/ 14 1013.9
$$

TC  - TEMPERATURE IN CELSIUS
VSB - VISIBILITY IN STATUTE MILES
WCI - WIND CHILL INDEX
HX  - HEAT INDEX





USA.gov is the U.S. government's official web portal to all federal, state and local government web resources and services.